Weather History for Meknes, Morocco

Change the Weather History Date:

Saturday, November 10, 2012

  Actual Average Record
Temperature  
Mean Temperature 57 °F -  
Max Temperature 61 °F - - ()
Min Temperature 53 °F - - ()
Degree Days  
Heating Degree Days 8    
Growing Degree Days 7 (Base 50)    
Moisture  
Dew Point 51 °F    
Average Humidity 82    
Maximum Humidity 94    
Minimum Humidity 67    
Precipitation  
Precipitation 0.12 in - - ()
Sea Level Pressure  
Sea Level Pressure 30.02 in    
Wind  
Wind Speed 5 mph ()    
Max Wind Speed 16 mph    
Max Gust Speed -    
Visibility 4.9 miles    
Events Rain    
T = Trace of Precipitation, MM = Missing Value Source: Averaged Metar Reports

Daily Weather History Graph

Daily Weather History Graph

Search for Another Location

Airport:

Trip Planner

Search our weather history database for the weather conditions in past years. The results will help you decide how hot, cold, wet, or windy it might be!

Date:

Astronomy

Nov. 10, 2012 Rise Set
Actual Time 6:49 AM WET 5:21 PM WET
Civil Twilight 6:23 AM WET 5:48 PM WET
Nautical Twilight 5:53 AM WET 6:17 PM WET
Astronomical Twilight 5:24 AM WET 6:47 PM WET
Moon 2:49 AM WET (11/10) 2:52 PM WET (11/10)
Length of Visible Light 11h 24m
Length of Day
10h 31m
Waning Crescent, 16% of the Moon is Illuminated
Nov 10
Waning Crescent
Nov 13
New
Nov 20
First Quarter
Nov 28
Full
Dec 6
Last Quarter

Hourly Weather History & Observations

Time (WET) Temp. Dew Point Humidity Pressure Visibility Wind Dir Wind Speed Gust Speed Precip Events Conditions
12:00 AM 56 °F 54 °F 91%  in 5 mi NE 2.3 mph - -   Mostly Cloudy
12:00 AM 57.2 °F 53.6 °F 88% 30.01 in 5.0 mi NE 2.3 mph - N/A   Mostly Cloudy
1:00 AM 59.0 °F 55.4 °F 88% 30.01 in 5.0 mi SW 3.5 mph - N/A   Mostly Cloudy
2:00 AM 59.0 °F 53.6 °F 82% 30.01 in 5.0 mi SW 2.3 mph - N/A   Mostly Cloudy
3:00 AM 58 °F 53 °F 76% 29.97 in 5 mi Calm Calm - -   Mostly Cloudy
3:00 AM 57.2 °F 51.8 °F 82% 29.98 in 5.0 mi Calm Calm - N/A   Mostly Cloudy
4:00 AM 55.4 °F 51.8 °F 88% 29.98 in 5.0 mi SW 6.9 mph - N/A   Mostly Cloudy
5:00 AM 53.6 °F 51.8 °F 94% 29.98 in 5.0 mi West 4.6 mph - N/A   Scattered Clouds
6:00 AM 52 °F 50 °F 91% 29.98 in 5 mi WNW 2.3 mph - -   Scattered Clouds
6:00 AM 53.6 °F 50.0 °F 88% 29.98 in 5.0 mi WNW 2.3 mph - N/A   Scattered Clouds
7:00 AM 53.6 °F 50.0 °F 88% 30.01 in 5.0 mi SSW 3.5 mph - N/A   Mostly Cloudy
8:00 AM 55.4 °F 48.2 °F 77% 30.04 in 6.2 mi WSW 6.9 mph - N/A   Scattered Clouds
9:00 AM 57 °F 49 °F 67% 30.02 in 6 mi WSW 6.9 mph - -   Partly Cloudy
9:00 AM 57.2 °F 50.0 °F 77% 30.04 in 6.2 mi WSW 6.9 mph - N/A   Scattered Clouds
10:00 AM 59.0 °F 48.2 °F 67% 30.04 in 6.2 mi SW 12.7 mph - N/A   Scattered Clouds
11:00 AM 59.0 °F 48.2 °F 67% 30.04 in 6.2 mi WSW 10.4 mph - N/A   Partly Cloudy
12:00 PM 57 °F 51 °F 75% 30.02 in 4 mi WSW 13.8 mph - - Rain Light Rain
12:00 PM 57.2 °F 51.8 °F 82% 30.04 in 3.7 mi WSW 13.8 mph - N/A Rain Light Rain
1:00 PM 60.8 °F 50.0 °F 68% 30.01 in 3.7 mi WSW 11.5 mph - N/A Rain Light Rain
2:00 PM 57.2 °F 51.8 °F 82% 30.01 in 3.1 mi West 13.8 mph - N/A Rain Rain
3:00 PM 58 °F 54 °F 81% 29.97 in 3 mi West 11.5 mph - - Rain Light Rain
3:00 PM 59.0 °F 53.6 °F 82% 30.01 in 3.1 mi West 11.5 mph - N/A   Mostly Cloudy
4:00 PM 59.0 °F 51.8 °F 77% 30.01 in 5.0 mi West 16.1 mph - N/A   Scattered Clouds
5:00 PM 57.2 °F 50.0 °F 77% 30.01 in 5.0 mi West 16.1 mph - N/A   Scattered Clouds
6:00 PM 56 °F 52 °F 80% 30.02 in 5 mi West 9.2 mph - -   Mostly Cloudy
6:00 PM 55.4 °F 51.8 °F 88% 30.01 in 5.0 mi West 9.2 mph - N/A   Mostly Cloudy
7:00 PM 55.4 °F 51.8 °F 88% 30.06 in 5.0 mi West 8.1 mph - N/A   Mostly Cloudy
8:00 PM 55.4 °F 51.8 °F 88% 30.09 in 5.0 mi West 5.8 mph - N/A   Mostly Cloudy
9:00 PM 54 °F 51 °F 87% 30.09 in 5 mi WSW 8.1 mph - -   Partly Cloudy
9:00 PM 55.4 °F 51.8 °F 88% 30.09 in 5.0 mi WSW 8.1 mph - N/A   Scattered Clouds
10:00 PM 55.4 °F 51.8 °F 88% 30.09 in 5.0 mi SW 4.6 mph - N/A   Unknown
11:00 PM 55.4 °F 50.0 °F 82% 30.06 in 6.2 mi SSW 9.2 mph - N/A   Mostly Cloudy